Printer-friendly version

IAU Minor Planet Center

Minor Planet Center

MPEC 2007-B45 : 2007 BD8

The following Minor Planet Electronic Circular may be linked-to from your own Web pages, but must not otherwise be redistributed electronically.


Read MPEC 2007-B44 Read MPEC 2007-B46


M.P.E.C. 2007-B45                                Issued 2007 Jan. 25, 11:54 UT

     The Minor Planet Electronic Circulars contain information on unusual
         minor planets and routine data on comets.  They are published
   on behalf of Commission 20 of the International Astronomical Union by the
          Minor Planet Center, Smithsonian Astrophysical Observatory,
                          Cambridge, MA 02138, U.S.A.

             Prepared using the Tamkin Foundation Computer Network

                              MPC@CFA.HARVARD.EDU
          URL http://cfa-www.harvard.edu/iau/mpc.html  ISSN 1523-6714

                                   2007 BD8

Observations:
     K07B08D* C2007 01 24.30347 08 24 29.48 +17 30 07.6          20.3 V EB045G96
     K07B08D  C2007 01 24.31147 08 24 28.33 +17 29 54.0          20.3 V EB045G96
     K07B08D  C2007 01 24.31941 08 24 27.10 +17 29 40.6          21.2 V EB045G96
     K07B08D  C2007 01 24.32735 08 24 25.99 +17 29 26.9          20.8 V EB045G96
     K07B08D  C2007 01 24.37705 08 24 18.60 +17 28 01.7                 EB045G96
     K07B08D  C2007 01 24.38337 08 24 17.66 +17 27 50.9          20.5 V EB045G96
     K07B08D  C2007 01 24.38978 08 24 16.74 +17 27 39.3          21.0 V EB045G96
     K07B08D  C2007 01 24.39604 08 24 15.77 +17 27 29.0          20.9 V EB045G96
     K07B08D  C2007 01 25.15000 08 22 41.42 +17 05 13.5          20.8 R EB045734
     K07B08D  C2007 01 25.15878 08 22 40.11 +17 04 57.1          20.8 R EB045734
     K07B08D  C2007 01 25.16755 08 22 38.78 +17 04 42.4          20.8 R EB045734
     K07B08D  C2007 01 25.17633 08 22 37.51 +17 04 25.3          21.2 R EB045734

Observer details:
734 Farpoint Observatory.  Observer G. Hug.  0.7-m reflector + CCD.
G96 Mt. Lemmon Survey.  Observer R. E. Hill.  Measurers E. C. Beshore,
    E. J. Christensen, G. J. Garradd, A. R. Gibbs, A. D. Grauer, R. E. Hill,
    R. A. Kowalski, S. M. Larson, R. H. McNaught.  1.5-m reflector + CCD.

Orbital elements:
2007 BD8                                                 Earth MOID = 0.0333 AU
Epoch 2007 Apr. 10.0 TT = JDT 2454200.5                 MPC
M   3.93017              (2000.0)            P               Q
n   0.59559882     Peri.  266.61568     -0.88447622     +0.46173652
a   1.3990508      Node   300.87352     -0.39101582     -0.81197577
e   0.3954628      Incl.    4.48322     -0.25457503     -0.35706406
P   1.65           H   24.7           G   0.15           U   9
Residuals in seconds of arc
070124 G96  0.2-  0.1+    070124 G96  0.1+  0.0     070125 734  0.3-  0.7+
070124 G96  0.3+  0.0     070124 G96  0.1-  0.1+    070125 734  0.2-  0.2-
070124 G96  0.4-  0.0     070124 G96  0.3+  0.3-    070125 734  0.2-  0.5+
070124 G96  0.5+  0.2-    070124 G96  0.5-  0.4+    070125 734  0.7+  1.0-

Ephemeris:
2007 BD8                 a,e,i = 1.40, 0.40, 4                   q = 0.8458
Date    TT    R. A. (2000) Decl.     Delta      r     Elong.  Phase     V
2007 01 20    08 32.11   +19 12.1    0.174    1.157   173.9     5.2    21.7
2007 01 25    08 22.99   +17 10.2    0.142    1.126   177.8     1.9    21.0
2007 01 30    08 09.32   +13 59.8    0.112    1.095   169.9     9.1    20.8
2007 02 04    07 48.06   +08 39.3    0.0845   1.065   158.9    19.5    20.5
2007 02 09    07 11.69   -01 12.8    0.0606   1.035   142.5    35.5    20.1
2007 02 14    05 59.68   -20 03.9    0.0437   1.006   114.6    63.1    20.2
2007 02 19    03 32.07   -42 56.6    0.0418   0.979    75.7   102.0    21.5

Timothy B. Spahr             (C) Copyright 2007 MPC           M.P.E.C. 2007-B45

Read MPEC 2007-B44 Read MPEC 2007-B46


Our Web policy. Index to the CBAT/MPC/ICQ pages.


Valid HTML 4.01!